Theta_e
317 317 315 312 311 310 306 304 303 299 298 299 299 299 299 299 301 301 305 314 317 318 319 318 317 316 315 314 313 312 312 311 311 311 311 311 311 311 311 311 310 310 310
320 316 315 313 312 311 307 301 298 295 294 295 294 294 294 294 294 295 293 297 312 313 315 316 316 315 314 313 312 311 310 310 309 309 309 309 309 309 309 309 309 308 308
319 318 316 316 313 310 302 297 294 293 291 291 290 291 291 291 291 289 289 290 291 305 309 311 312 313 313 312 311 310 309 309 308 308 308 308 307 307 307 307 307 307 307
320 320 317 315 313 306 299 295 293 290 290 290 288 288 289 289 288 288 287 286 287 288 298 306 308 309 311 311 310 309 308 307 307 306 306 306 306 306 306 306 306 306 306
321 319 314 311 310 305 298 295 293 290 288 288 288 288 288 288 288 287 285 284 284 283 284 293 296 303 306 308 308 308 307 306 305 305 305 305 305 305 305 305 304 304 304
319 315 311 310 309 304 298 294 291 291 289 288 287 287 286 287 287 285 284 283 282 282 282 282 283 286 302 304 305 306 306 305 304 303 303 304 304 304 303 303 303 303 303
317 313 310 309 307 303 298 293 291 289 288 288 286 284 285 285 285 285 284 281 281 281 281 281 281 281 283 296 301 303 304 303 303 302 302 302 302 302 302 302 302 302 302
315 313 310 309 307 302 296 294 291 289 288 288 286 285 281 282 284 284 283 282 281 281 280 280 280 280 281 282 292 298 300 300 301 301 300 301 301 301 302 301 301 301 301
313 310 309 308 306 303 297 293 292 290 287 288 288 288 281 280 280 283 283 282 281 279 278 279 279 279 280 280 283 288 294 295 297 298 298 299 299 300 300 301 300 300 300
305 307 307 307 305 304 299 294 293 292 290 287 289 290 290 285 280 277 281 281 281 279 278 279 278 279 279 279 282 288 291 292 293 294 295 296 297 298 299 299 299 299 299
301 301 303 304 304 304 301 297 294 292 292 290 290 289 286 286 284 280 277 278 281 280 280 279 278 278 279 279 279 283 290 291 291 291 292 292 293 295 296 297 297 297 297
296 297 299 301 303 303 302 298 295 294 293 292 293 291 287 285 282 281 279 278 278 279 280 279 278 277 278 279 281 283 287 289 289 289 289 290 290 291 293 294 295 295 295
292 295 297 297 299 301 301 300 297 295 294 293 293 291 289 287 286 284 281 279 278 278 278 279 279 279 279 279 279 280 283 286 287 287 288 288 289 290 290 291 292 293 293
296 295 294 295 296 297 298 299 297 296 294 293 292 291 289 286 286 284 281 279 276 277 278 277 279 278 278 278 279 281 278 283 285 286 286 286 287 288 288 289 290 291 291
290 291 292 292 292 293 294 295 295 294 292 292 291 290 288 285 284 284 283 282 279 275 275 277 276 278 277 278 279 277 276 280 283 284 285 285 285 286 287 288 288 289 289
287 286 288 289 289 290 291 291 292 291 290 291 292 287 286 284 284 283 283 283 283 280 276 277 276 276 277 278 279 277 277 280 281 283 284 284 283 285 285 286 286 287 287
285 284 284 285 286 287 288 289 290 288 289 288 287 286 284 283 284 283 283 283 281 280 278 275 275 276 276 276 276 277 277 276 275 281 283 283 282 283 284 284 285 285 285
283 284 284 284 285 286 286 288 288 287 287 286 285 284 284 282 282 283 282 281 281 279 277 274 274 274 275 275 275 275 276 277 277 279 282 283 281 282 282 283 283 283 283
284 283 283 283 283 283 283 285 286 286 286 286 284 284 282 281 280 280 281 281 281 278 276 276 274 275 274 275 274 275 275 275 276 279 281 282 280 281 281 282 282 281 281
283 282 282 281 281 281 283 284 284 284 285 284 283 283 282 281 281 280 279 280 279 277 277 276 275 274 274 275 275 273 273 274 274 276 278 278 279 279 280 281 280 278 280
282 282 281 280 280 281 282 283 283 283 283 282 281 281 281 281 283 282 280 278 278 277 276 276 275 274 273 273 273 273 273 273 273 274 273 273 272 273 273 276 276 277 280
281 281 280 280 280 281 282 286 284 283 282 281 280 280 280 280 281 283 284 283 281 278 276 276 275 274 274 274 274 273 273 271 269 273 271 270 272 271 272 272 276 279 280
280 279 280 280 280 281 285 286 287 282 282 281 280 279 278 278 279 280 283 283 283 284 282 278 276 276 274 275 274 273 273 271 269 271 270 269 271 270 272 273 277 278 280
279 279 279 279 280 280 285 286 286 283 281 281 280 279 279 278 279 280 281 280 279 280 280 278 278 277 276 276 276 275 273 271 270 271 271 265 269 269 270 271 276 278 280
279 279 279 279 278 280 284 286 286 284 280 280 280 279 279 278 281 283 280 278 278 279 282 281 280 281 281 280 277 272 265 265 264 267 271 268 268 268 269 269 271 276 279
280 279 279 279 279 279 284 285 286 284 280 279 279 278 280 279 283 284 279 278 277 277 278 277 278 279 280 279 279 273 270 265 266 264 269 266 266 266 263 268 270 271 270
Wind_Speed
6 6 6 4 4 5 7 7 8 7 8 7 7 9 10 8 8 6 6 15 18 16 16 16 16 17 17 17 17 18 18 18 19 19 19 20 20 20 21 21 21 22 22
7 6 6 6 6 7 7 7 7 8 7 6 8 9 9 9 9 9 7 8 14 15 15 15 15 15 16 16 16 17 18 18 18 18 19 19 20 20 20 20 21 20 21
9 9 7 6 7 7 10 9 8 8 8 7 9 8 8 8 8 9 7 6 7 15 14 13 13 14 14 15 16 17 17 17 17 18 18 19 19 19 19 20 20 20 21
12 8 7 7 7 6 9 8 8 7 7 7 7 6 7 7 8 9 6 6 6 6 8 14 12 12 14 14 14 16 16 16 16 17 17 18 18 18 19 20 20 21 21
10 9 7 6 10 7 5 8 7 8 7 7 8 6 6 6 6 6 7 7 7 6 5 10 14 12 12 13 13 14 15 16 16 16 17 17 17 18 19 19 20 20 21
9 9 8 10 9 8 7 7 11 7 8 9 9 7 6 5 5 5 5 5 5 5 4 5 5 7 12 12 12 14 15 15 15 15 16 16 17 18 18 19 19 20 20
10 10 7 10 8 11 7 9 10 14 8 10 6 7 5 5 5 4 3 3 4 4 5 5 4 4 5 12 11 12 14 14 14 15 15 15 16 17 17 18 19 19 20
12 10 12 11 12 9 12 12 12 7 5 9 5 4 4 1 2 3 4 4 3 3 4 4 4 4 4 4 7 11 12 12 13 13 13 14 14 15 16 17 18 19 20
9 11 12 11 12 11 12 14 14 15 10 10 12 5 5 5 4 2 3 3 4 3 3 3 4 3 3 3 5 5 10 10 11 11 12 13 14 15 16 16 17 18 19
6 8 11 11 13 11 12 14 14 11 8 14 6 5 1 7 6 4 2 3 4 5 4 3 4 3 2 1 4 3 8 9 9 10 10 11 12 13 14 15 16 17 18
4 5 7 9 11 9 12 15 15 12 10 10 9 5 2 3 3 4 5 5 3 4 3 4 4 3 2 0 2 2 5 7 8 8 8 9 11 12 13 14 14 15 17
3 4 6 7 9 9 11 13 14 15 13 10 10 7 7 5 7 5 4 6 6 4 3 3 4 4 4 3 2 2 2 5 7 6 6 7 7 9 10 11 12 14 16
3 7 8 8 7 9 10 11 13 14 14 12 13 9 6 5 6 4 4 5 4 2 3 3 4 4 4 3 4 5 3 3 5 3 4 4 6 9 10 10 11 13 15
6 6 7 7 7 7 8 9 9 10 11 11 12 11 7 5 5 4 6 9 4 2 3 3 3 4 4 4 5 7 3 2 3 2 1 1 6 7 8 9 11 13 13
3 6 8 8 7 6 7 8 8 10 10 11 11 11 8 5 5 6 7 11 8 6 9 7 5 6 5 5 6 4 4 4 3 3 3 1 3 6 7 8 9 11 11
6 7 7 8 7 7 8 8 7 7 10 9 8 11 9 5 6 5 7 8 6 5 6 3 6 4 7 5 6 5 5 5 6 6 6 3 2 6 6 8 8 11 10
7 7 8 8 8 10 10 10 9 9 12 10 9 12 11 9 7 7 6 6 7 4 4 2 2 3 6 6 5 4 4 4 4 9 9 4 2 6 6 8 8 10 10
6 7 7 8 8 9 9 11 11 10 13 12 12 12 12 8 10 10 9 11 10 5 5 9 3 3 4 6 5 4 4 3 3 9 10 7 4 7 7 8 9 11 11
6 6 7 10 10 10 10 10 11 11 12 12 13 13 13 12 11 8 10 9 9 6 4 6 5 3 2 4 3 3 3 3 3 9 10 10 6 8 9 9 9 11 10
6 7 8 9 9 9 11 11 11 11 11 11 12 13 12 14 14 13 11 12 9 8 4 8 3 7 3 3 2 3 3 3 3 4 6 7 9 9 10 10 10 10 10
7 7 7 7 6 7 8 11 11 12 12 11 10 11 12 14 18 16 11 12 11 8 8 9 6 4 4 4 6 4 3 2 3 2 2 3 3 3 5 8 8 9 11
7 7 9 9 9 9 13 21 16 12 12 13 12 11 10 10 13 22 22 20 17 15 10 7 5 9 7 4 4 4 4 3 3 2 1 3 3 3 4 4 9 11 10
6 9 10 10 12 11 21 24 24 11 12 13 13 12 10 9 12 12 18 20 17 17 16 10 12 10 8 10 9 6 5 3 3 2 2 3 2 3 4 6 12 10 10
9 9 11 12 12 12 23 25 24 15 13 14 15 16 15 14 15 12 11 9 7 8 9 6 8 6 3 9 7 4 5 3 1 2 3 3 1 3 3 5 12 9 10
7 9 8 11 13 13 23 26 23 16 14 14 13 14 15 14 21 24 13 12 9 4 8 9 8 12 12 17 12 7 3 3 1 2 3 2 1 3 3 3 4 7 11
9 7 10 10 13 14 21 25 23 12 12 10 9 9 15 14 26 27 14 13 11 10 9 7 6 10 12 13 17 5 6 4 3 1 4 4 2 1 4 2 3 3 4
Wind_Direction
152 151 153 137 120 110 111 107 105 95 81 79 74 77 70 56 58 58 34 54 80 83 86 88 85 81 80 75 74 72 70 66 63 60 58 55 52 49 44 41 42 35 31
161 157 156 148 138 132 121 117 120 113 98 85 79 78 72 65 54 53 41 24 62 74 72 76 78 78 80 79 73 71 69 66 64 61 58 56 52 47 44 41 38 36 31
168 164 163 164 151 138 121 117 110 107 105 95 81 75 81 74 68 57 42 33 25 43 65 66 74 77 77 76 75 73 70 66 63 60 57 55 52 49 45 42 38 35 31
168 164 165 160 152 136 133 130 126 106 107 103 99 85 82 84 77 72 59 44 38 33 36 59 59 71 76 77 75 75 70 66 63 60 57 55 53 49 46 42 39 35 30
169 165 156 144 137 140 125 130 123 124 121 109 103 92 82 77 80 80 65 53 46 42 36 27 20 49 74 74 79 78 74 67 62 60 57 55 53 50 45 41 39 35 31
161 153 148 145 145 143 144 138 131 118 127 124 106 84 77 77 78 77 88 80 68 63 57 35 18 2 62 74 73 76 76 74 70 65 61 56 52 49 46 41 37 35 31
160 153 151 148 159 150 158 142 137 134 136 129 106 94 54 69 88 95 94 92 98 92 77 56 33 18 17 19 75 73 75 74 72 67 62 59 55 50 45 42 37 34 30
168 167 164 170 166 154 147 154 157 143 141 169 131 110 147 186 98 138 128 124 115 104 99 94 79 52 23 8 46 70 67 69 70 68 64 60 57 52 46 41 35 32 29
176 172 173 171 169 166 170 167 168 167 165 189 181 150 148 198 131 151 184 158 161 144 138 135 119 84 57 30 13 25 81 70 67 65 64 58 51 46 43 39 32 27 25
167 177 176 175 176 168 179 173 177 180 168 181 191 239 168 137 164 163 187 188 183 180 171 176 149 145 95 41 17 34 92 85 71 60 53 53 47 39 37 35 28 23 20
182 170 171 175 178 186 186 179 181 189 184 186 194 137 152 126 117 145 162 178 215 211 187 172 167 160 160 63 349 330 101 99 80 62 51 49 44 34 30 29 22 18 14
176 178 177 186 190 192 188 183 193 193 188 195 200 181 184 173 175 155 133 160 174 186 192 179 185 180 184 189 175 24 107 109 86 65 51 46 40 32 27 22 17 13 11
195 201 189 189 193 195 194 190 193 199 199 201 198 196 184 202 157 126 122 140 151 151 192 206 210 192 185 189 194 158 252 118 100 80 51 34 27 26 17 11 8 9 8
203 184 193 192 198 196 195 196 196 202 203 207 201 199 192 176 159 146 137 151 132 167 176 182 191 202 185 189 200 177 208 204 149 172 60 7 28 15 6 3 3 2 0
173 180 190 192 194 194 197 194 202 201 199 198 199 191 183 180 178 162 160 167 152 157 202 192 179 190 189 182 205 187 194 231 215 224 251 287 16 5 355 353 352 354 349
179 180 189 192 190 194 195 197 204 203 196 201 201 190 190 176 171 175 173 185 155 154 174 166 198 161 178 181 203 195 197 207 229 245 244 245 314 349 336 335 338 347 344
188 190 192 192 196 199 198 201 207 196 201 196 192 192 192 174 181 185 178 179 180 163 139 166 128 159 167 173 194 191 195 204 226 248 247 249 283 329 317 324 327 338 340
189 192 192 197 204 209 206 207 207 204 205 201 196 190 191 178 188 187 186 189 185 167 136 157 143 149 172 185 189 182 194 210 215 250 246 242 260 314 300 316 317 335 332
196 195 195 207 204 202 200 211 213 207 207 206 199 195 188 181 188 184 189 180 190 171 149 147 144 141 135 167 178 184 203 214 235 252 244 238 259 296 286 304 315 329 316
202 208 214 220 216 202 205 207 205 208 209 208 200 197 192 190 192 188 187 189 175 158 148 149 149 148 128 145 143 158 216 196 236 225 229 231 266 281 286 295 312 315 302
215 212 209 218 224 221 218 211 207 207 210 206 201 202 199 198 199 197 181 184 167 162 161 158 156 133 151 157 192 170 182 182 254 205 241 249 248 260 267 285 294 292 292
213 205 219 219 217 225 230 225 212 208 206 207 205 202 198 188 198 196 194 187 179 161 165 166 143 175 178 153 142 174 157 180 222 199 219 254 220 237 247 253 272 285 293
205 213 219 218 228 224 225 227 221 215 209 208 205 198 194 193 184 186 188 185 188 196 192 158 166 179 167 175 159 164 181 159 186 189 140 266 226 246 240 258 290 285 270
220 224 227 224 226 227 229 229 222 217 215 211 206 199 197 189 185 174 164 163 165 186 167 146 166 166 139 151 164 160 139 133 83 242 150 244 258 259 262 256 284 266 256
231 230 232 228 228 234 230 229 222 217 220 218 211 204 196 185 182 172 159 161 160 158 170 142 167 165 163 163 151 120 139 115 237 223 190 163 229 280 280 288 270 261 253
240 233 243 235 236 242 236 235 225 218 222 217 203 199 198 183 181 174 165 163 169 181 155 157 168 169 170 174 175 170 152 147 152 312 190 172 200 186 309 273 274 260 271